Home > Weather > Prescott > Past weeks

Flag for USA Past Weather in Prescott, Arizona, USA — Yesterday and Last 2 Weeks

Now
84 °F

Sunny.


Feels Like: 83 °F
Forecast: 70 / 94 °F
Wind: 15 mph from West

Location: Love Field

Current Time: Jul 28, 2016 at 5:23:41 PM

Latest Report: Jul 28, 2016 at 4:53 PM


Visibility: 10 mi

Pressure: 29.83 "Hg (24.79 "Hg at 1635m altitude)

Humidity: 35%

Dew Point: 53 °F

Location of PrescottLocation

Past Weather in Prescott — Graph

°F

Prescott Temperature Yesterday

Maximum temperature yesterday: 99 °F (at 2:01 PM)
Minimum temperature yesterday: 67 °F (at 4:53 AM)
Average temperature yesterday: 80 °F

High & Low Weather Summary for the Past Weeks

 TemperatureHumidityPressure
High100 °F (Jul 28, 2:53 PM)87% (Jul 25, 10:53 PM)30.17 "Hg (Jul 25, 10:53 PM)
Low61 °F (Jul 21, 2:53 AM)11% (Jul 13, 3:53 PM)29.76 "Hg (Jul 16, 5:53 PM)
Average79 °F42%29.92 "Hg
* Reported Jul 13 3:53 PM — Jul 28 3:53 PM, Prescott, Weather by CustomWeather, © 2016

Note: Actual official high and low records may vary slightly from our data, if they occured in-between our weather recording intervals... More about our weather records

Advertising

Prescott Weather History for the Previous 24 Hours

Scroll right to see more
 ConditionsComfort  
Time TempWeatherWind HumidityBarometerVisibility
3:53 PM
Thu, Jul 28
93 °FThundershowers. Scattered clouds.7 mph25%29.79 "Hg10 mi
2:53 PM100 °FSunny.3 mph13%29.78 "Hg10 mi
1:53 PM97 °FSunny.3 mph17%29.81 "Hg10 mi
12:53 PM93 °FSunny.6 mph22%29.85 "Hg10 mi
11:53 AM93 °FSunny.7 mph26%29.88 "Hg10 mi
10:53 AM89 °FSunny.5 mph31%29.91 "Hg10 mi
9:53 AM86 °FSunny.7 mph35%29.90 "Hg10 mi
8:53 AM82 °FPassing clouds.6 mph40%29.91 "Hg10 mi
7:53 AM78 °FSunny.10 mph45%29.91 "Hg10 mi
6:53 AM74 °FSunny.8 mph50%29.91 "Hg10 mi
5:53 AM68 °FSunny.3 mph55%29.90 "Hg10 mi
4:53 AM70 °FClear.7 mph49%29.90 "Hg10 mi
3:53 AM70 °FClear.7 mph53%29.88 "Hg10 mi
2:53 AM72 °FClear.8 mph48%29.85 "Hg10 mi
1:53 AM72 °FClear.8 mph48%29.84 "Hg10 mi
12:53 AM73 °FClear.9 mph46%29.83 "Hg10 mi
11:53 PM
Wed, Jul 27
72 °FClear.9 mph49%29.82 "Hg10 mi
10:53 PM70 °FClear.6 mph57%29.84 "Hg10 mi
9:53 PM77 °FClear.No wind39%29.83 "Hg10 mi
8:53 PM79 °FClear.3 mph36%29.83 "Hg10 mi
7:53 PM83 °FClear.3 mph30%29.81 "Hg10 mi
6:53 PM83 °FSunny.5 mph36%29.82 "Hg10 mi
5:53 PM84 °FSunny.9 mph33%29.83 "Hg10 mi
Weather by CustomWeather, © 2016

See weather overviewHow to use our weather pages